Weather History for Clarksville, TN

Change the Weather History Date:

Thursday, January 17, 2013

  Actual Average Record
Temperature  
Mean Temperature 39 °F -  
Max Temperature 48 °F - 69 °F (1949)
Min Temperature 29 °F - -10 °F (1977)
Degree Days  
Heating Degree Days 26    
Month to date heating degree days 420  
Since 1 July heating degree days 1860  
Cooling Degree Days 0    
Month to date cooling degree days 2  
Moisture  
Dew Point 29 °F    
Average Humidity 76    
Maximum Humidity 92    
Minimum Humidity 60    
Precipitation  
Precipitation 0.00 in - 1.27 in (1990)
Month to date precipitation 3.48  
Sea Level Pressure  
Sea Level Pressure 30.24 in    
Wind  
Wind Speed 10 mph (North)    
Max Wind Speed 25 mph    
Max Gust Speed 32 mph    
Visibility 9 miles    
Events      
T = Trace of Precipitation, MM = Missing Value Source: NWS Daily Summary

Daily Weather History Graph

Daily Weather History Graph

Search for Another Location

Airport:

Trip Planner

Search our weather history database for the weather conditions in past years. The results will help you decide how hot, cold, wet, or windy it might be!

Date:

Astronomy

Jan. 17, 2013 Rise Set
Actual Time 7:00 AM CST 4:59 PM CST
Civil Twilight 6:32 AM CST 5:27 PM CST
Nautical Twilight 6:00 AM CST 5:59 PM CST
Astronomical Twilight 5:29 AM CST 6:30 PM CST
Moon 10:18 AM CST (1/17) 11:38 PM CST (1/17)
Length of Visible Light 10h 55m
Length of Day
9h 59m
Waxing Crescent, 38% of the Moon is Illuminated
Jan 17
Waxing Crescent
Jan 18
First Quarter
Jan 26
Full
Feb 3
Last Quarter
Feb 10
New

Hourly Weather History & Observations

Time (CST) Temp. Windchill Dew Point Humidity Pressure Visibility Wind Dir Wind Speed Gust Speed Precip Events Conditions
12:52 AM 32.0 °F 28.7 °F 28.9 °F 88% 30.16 in 7.0 mi North 3.5 mph - N/A   Overcast
1:52 AM 32.0 °F 28.7 °F 28.9 °F 88% 30.16 in 7.0 mi North 3.5 mph - N/A   Mostly Cloudy
2:52 AM 32.0 °F - 30.0 °F 92% 30.14 in 5.0 mi Calm Calm - N/A   Mostly Cloudy
3:52 AM 32.0 °F 27.5 °F 28.9 °F 88% 30.14 in 6.0 mi North 4.6 mph - N/A   Clear
4:52 AM 30.9 °F 25.2 °F 28.0 °F 89% 30.13 in 7.0 mi North 5.8 mph - N/A   Partly Cloudy
5:52 AM 30.9 °F - 26.1 °F 82% 30.14 in 9.0 mi Calm Calm - N/A   Overcast
6:52 AM 30.9 °F 23.5 °F 26.1 °F 82% 30.15 in 9.0 mi North 8.1 mph - N/A   Mostly Cloudy
7:52 AM 33.1 °F 25.5 °F 27.0 °F 78% 30.18 in 8.0 mi North 9.2 mph - N/A   Overcast
8:52 AM 34.0 °F 24.6 °F 27.0 °F 75% 30.18 in 9.0 mi North 13.8 mph - N/A   Overcast
9:52 AM 37.9 °F 30.0 °F 28.9 °F 70% 30.20 in 10.0 mi NNE 12.7 mph 21.9 mph N/A   Clear
10:52 AM 39.0 °F 33.4 °F 30.9 °F 73% 30.17 in 10.0 mi North 8.1 mph - N/A   Clear
11:52 AM 39.9 °F 32.9 °F 30.9 °F 70% 30.15 in 10.0 mi NNE 11.5 mph - N/A   Scattered Clouds
12:52 PM 44.1 °F 37.1 °F 33.1 °F 65% 30.14 in 10.0 mi NNE 15.0 mph - N/A   Clear
1:52 PM 45.0 °F 37.1 °F 33.1 °F 63% 30.14 in 10.0 mi North 19.6 mph 26.5 mph N/A   Scattered Clouds
2:52 PM 46.9 °F - 34.0 °F 61% 30.17 in 10.0 mi NNW 21.9 mph 28.8 mph N/A   Mostly Cloudy
3:52 PM 45.0 °F 37.1 °F 34.0 °F 65% 30.23 in 10.0 mi NNW 19.6 mph - N/A   Scattered Clouds
4:52 PM 42.1 °F 35.7 °F 32.0 °F 67% 30.28 in 10.0 mi NNW 11.5 mph - N/A   Clear
5:52 PM 39.9 °F 32.1 °F 32.0 °F 73% 30.32 in 10.0 mi NNW 13.8 mph - N/A   Partly Cloudy
6:52 PM 37.0 °F 28.5 °F 28.9 °F 73% 30.37 in 10.0 mi North 13.8 mph - N/A   Clear
7:52 PM 34.0 °F 26.0 °F 28.0 °F 79% 30.41 in 10.0 mi NNW 10.4 mph - N/A   Clear
8:52 PM 33.1 °F 24.9 °F 27.0 °F 78% 30.44 in 10.0 mi NNW 10.4 mph - N/A   Clear
9:52 PM 32.0 °F 24.8 °F 26.1 °F 79% 30.46 in 10.0 mi NNW 8.1 mph - N/A   Clear
10:52 PM 30.9 °F 22.8 °F 25.0 °F 79% 30.46 in 10.0 mi NNW 9.2 mph - N/A   Clear
11:52 PM 28.9 °F 23.9 °F 24.1 °F 82% 30.47 in 10.0 mi North 4.6 mph - N/A   Clear